Hourly Data Report for January 22, 2006

TORONTO CITY
ONTARIO

43°40'00.000" N
79°24'00.000" W
112.50 m
6158355
71508
XTO

Download Data

Hourly Data (January 2006)
Hourly Data Report for January 22, 2006
TIME
LST
Temp Definition
°C
Dew Point Definition
°C
Rel Hum Definition
%
Precip. Amount Definition
mm

Wind Dir Definition
10's deg

Wind Spd Definition
km/h
Visibility Definition
km
Stn Press Definition
kPa
Hmdx Definition


Wind Chill Definition


Weather Definition


00:00 -1.1 -4.5 78   LegendMM LegendMM   102.02     LegendNANA
01:00 -1.5 -4.4 81   LegendMM LegendMM   102.05     LegendNANA
02:00 -1.9 -4.6 82   LegendMM LegendMM   102.06     LegendNANA
03:00 -1.8 -4.6 81   LegendMM LegendMM   102.15     LegendNANA
04:00 -2.2 -5.0 81   LegendMM LegendMM   102.18     LegendNANA
05:00 -1.8 -5.1 78   LegendMM LegendMM   102.19     LegendNANA
06:00 -2.2 -4.8 82   LegendMM LegendMM   102.23     LegendNANA
07:00 -2.6 -4.9 84   LegendMM LegendMM   102.23     LegendNANA
08:00 -2.4 -4.2 87   LegendMM LegendMM   102.21     LegendNANA
09:00 -1.3 -3.5 85   LegendMM LegendMM   102.26     LegendNANA
10:00 0.6 -2.7 79   LegendMM LegendMM   102.21     LegendNANA
11:00 1.4 -2.7 74   LegendMM LegendMM   102.21     LegendNANA
12:00 1.6 -2.5 74   LegendMM LegendMM   102.12     LegendNANA
13:00 2.2 -2.2 73   LegendMM LegendMM   101.98     LegendNANA
14:00 2.3 -1.6 75   LegendMM LegendMM   101.91     LegendNANA
15:00 2.3 -1.6 75   LegendMM LegendMM   101.87     LegendNANA
16:00 2.2 -2.5 71   LegendMM LegendMM   101.79     LegendNANA
17:00 1.7 -2.1 76   LegendMM LegendMM   101.68     LegendNANA
18:00 1.7 -2.1 76   LegendMM LegendMM   101.63     LegendNANA
19:00 1.5 -1.8 79   LegendMM LegendMM   101.56     LegendNANA
20:00 1.8 -1.2 80   LegendMM LegendMM   101.49     LegendNANA
21:00 2.0 -0.6 83   LegendMM LegendMM   101.37     LegendNANA
22:00 2.0 -0.4 84   LegendMM LegendMM   101.27     LegendNANA
23:00 1.7 -0.5 85   LegendMM LegendMM   101.13     LegendNANA

Notes on Data Quality.

Legend

  • E = Estimated
  • M = Missing
  • NA = Not Available*
  • [empty] = Indicates an unobserved value
Date modified: